Bar Harbor, ME

8:43 PM EDT on October 22, 2019 (GMT -0400)
Hancock County-Bar Harbor

Weather History for KBHB - June, 2019

Change the Weather History Date:

Thursday, June 13, 2019

  Actual Average Record
Temperature  
Mean Temperature 54 °F -  
Max Temperature 59 °F 69 °F 88 °F (2017)
Min Temperature 48 °F 48 °F 37 °F (2000)
Degree Days  
Heating Degree Days 12    
Growing Degree Days 4 (Base 50)    
Moisture  
Dew Point 50 °F    
Average Humidity 90    
Maximum Humidity 100    
Minimum Humidity 59    
Precipitation  
Precipitation 1.38 in - - ()
Sea Level Pressure  
Sea Level Pressure 29.97 in    
Wind  
Wind Speed 5 mph (ESE)    
Max Wind Speed 20 mph    
Max Gust Speed 30 mph    
Visibility 6 miles    
Events Rain    
Averages and records for this station are not official NWS values.
T = Trace of Precipitation, MM = Missing Value Source: NWS Daily Summary

Daily Weather History Graph

Daily Weather History Graph

Search for Another Location

Airport or City:

Astronomy

Jun. 13, 2019 Rise Set
Actual Time 4:48 AM EDT 8:18 PM EDT
Civil Twilight 4:11 AM EDT 8:55 PM EDT
Nautical Twilight 3:23 AM EDT 9:43 PM EDT
Astronomical Twilight 2:21 AM EDT 10:46 PM EDT
Moon 4:20 PM EDT (6/13) 2:43 AM EDT (6/13)
Length of Visible Light 16h 43m
Length of Day
15h 30m
Waxing Gibbous, 85% of the Moon is Illuminated
Jun 13
Waxing Gibbous
Jun 17
Full
Jun 25
Last Quarter
Jul 2
New
Jul 9
First Quarter

Hourly Weather History & Observations

Time (EDT) Temp. Dew Point Humidity Pressure Visibility Wind Dir Wind Speed Gust Speed Precip Events Conditions
12:56 AM 51.1 °F 45.0 °F 80% 30.17 in 10.0 mi Calm Calm - N/A   Clear
1:56 AM 52.0 °F 46.0 °F 80% 30.16 in 10.0 mi Calm Calm - N/A   Clear
2:56 AM 52.0 °F 48.0 °F 86% 30.16 in 10.0 mi SSW 5.8 mph - N/A   Clear
3:56 AM 51.1 °F 48.0 °F 89% 30.15 in 10.0 mi Calm Calm - N/A   Clear
4:56 AM 48.0 °F 46.9 °F 96% 30.15 in 10.0 mi Calm Calm - N/A   Clear
5:56 AM 52.0 °F 50.0 °F 93% 30.16 in 10.0 mi Calm Calm - N/A   Clear
6:56 AM 55.0 °F 50.0 °F 83% 30.16 in 10.0 mi Calm Calm - N/A   Clear
7:56 AM 55.9 °F 50.0 °F 80% 30.16 in 10.0 mi SE 4.6 mph - N/A   Clear
8:56 AM 57.9 °F 51.1 °F 78% 30.16 in 10.0 mi Calm Calm - N/A   Clear
9:56 AM 59.0 °F 52.0 °F 78% 30.16 in 10.0 mi Variable 4.6 mph - N/A   Clear
10:56 AM 59.0 °F 51.1 °F 75% 30.16 in 10.0 mi ESE 4.6 mph - N/A   Clear
11:56 AM 59.0 °F 48.9 °F 69% 30.15 in 10.0 mi South 9.2 mph - N/A   Clear
12:56 PM 59.0 °F 45.0 °F 60% 30.13 in 10.0 mi SE 5.8 mph - N/A   Clear
2:56 PM 57.0 °F 43.0 °F 59% 30.08 in 10.0 mi East 5.8 mph - 0.00 in Rain Light Rain
3:32 PM 53.6 °F 48.2 °F 82% 30.06 in 4.0 mi East 5.8 mph - 0.07 in Rain Rain
3:56 PM 50.0 °F 46.9 °F 89% 30.07 in 6.0 mi ESE 4.6 mph - 0.12 in Rain Light Rain
4:32 PM 48.2 °F 48.2 °F 100% 30.01 in 5.0 mi East 8.1 mph - 0.10 in Rain Rain
4:43 PM 48.2 °F 48.2 °F 100% 30.00 in 5.0 mi East 6.9 mph - 0.12 in Rain Rain
4:52 PM 50.0 °F 48.2 °F 94% 29.99 in 4.0 mi East 6.9 mph - 0.13 in Rain Light Rain
4:56 PM 50.0 °F 48.9 °F 96% 30.00 in 4.0 mi East 9.2 mph - 0.14 in Rain Rain
5:56 PM 52.0 °F 51.1 °F 97% 29.90 in 3.0 mi East 19.6 mph 26.5 mph 0.16 in Rain Rain
6:41 PM 51.8 °F 51.8 °F 100% 29.84 in 2.5 mi East 15.0 mph 28.8 mph 0.15 in Rain Rain
6:56 PM 52.0 °F 51.1 °F 97% 29.85 in 2.0 mi East 19.6 mph 29.9 mph 0.22 in Rain Rain
7:42 PM 51.8 °F 51.8 °F 100% 29.83 in 1.2 mi ESE 11.5 mph 23.0 mph 0.35 in Rain Heavy Rain
7:56 PM 52.0 °F 51.1 °F 97% 29.84 in 2.5 mi East 12.7 mph 21.9 mph 0.45 in Rain Light Rain
8:08 PM 51.8 °F 51.8 °F 100% 29.81 in 4.0 mi East 18.4 mph 27.6 mph 0.01 in Rain Light Rain
8:42 PM 51.8 °F 51.8 °F 100% 29.79 in 6.0 mi East 16.1 mph 23.0 mph 0.05 in Rain Light Rain
8:56 PM 52.0 °F 51.1 °F 97% 29.80 in 3.0 mi East 10.4 mph 23.0 mph 0.07 in Rain Light Rain
9:13 PM 51.8 °F 51.8 °F 100% 29.77 in 2.5 mi East 12.7 mph 21.9 mph 0.03 in Rain Light Rain
9:56 PM 52.0 °F 52.0 °F 100% 29.75 in 1.8 mi ESE 8.1 mph 16.1 mph 0.09 in Rain Rain
10:35 PM 53.6 °F 51.8 °F 94% 29.73 in 2.0 mi ESE 5.8 mph - 0.08 in Rain Light Rain
10:49 PM 53.6 °F 53.6 °F 100% 29.72 in 1.0 mi East 6.9 mph - 0.09 in Rain Light Rain
10:56 PM 53.1 °F 53.1 °F 100% 29.73 in 1.0 mi Variable 3.5 mph - 0.10 in Rain Light Rain
11:49 PM 53.6 °F 53.6 °F 100% 29.69 in 0.8 mi ESE 4.6 mph - 0.03 in Rain Light Rain
11:56 PM 55.0 °F 54.0 °F 96% 29.71 in 1.0 mi East 3.5 mph - 0.03 in Rain Light Rain